Satellite-Ground Cal/Val Site Overpasses Predictions

Prediction of Satellite NPP Overpassing Cal/Val Site: Antarctic Dome C

Ground Cal/Val Site Location: Latitude: -75.10, Longitude: 123.35; Satellite-Ground Site NADIR distance within 100 km.

Table of predicted overpasses for the next 14.0 days since TLE Epoch: 4/21/2014
Interval Starting Time Ending Time Minimum Distance Time Minimum Distance (km)
1 04/22/2014 14:53:56 04/22/2014 14:54:25 04/22/2014 14:54:11 6.63
2 04/24/2014 07:36:48 04/24/2014 07:37:18 04/24/2014 07:37:03 3.40
3 04/27/2014 15:00:21 04/27/2014 15:00:49 04/27/2014 15:00:35 30.72
4 04/28/2014 14:41:39 04/28/2014 14:41:58 04/28/2014 14:41:48 76.54
5 04/29/2014 07:43:15 04/29/2014 07:43:43 04/29/2014 07:43:29 32.83
6 04/30/2014 07:24:31 04/30/2014 07:24:49 04/30/2014 07:24:40 77.02
7 05/02/2014 15:06:50 05/02/2014 15:07:11 05/02/2014 15:07:01 67.84
8 05/03/2014 14:48:00 05/03/2014 14:48:27 05/03/2014 14:48:13 41.49
9 05/04/2014 07:49:42 05/04/2014 07:50:03 05/04/2014 07:49:53 68.06


NCC Satellite Cal/Val Overpasses Prediction Service
